Orbital Elements at Epoch 2459000.5 (2020-May-31.0) TDB
Reference: JPL 40 (heliocentric ecliptic J2000)
Element | Value | Uncertainty (1-sigma) | Units |
e | .1070773012661212 | 4.1523e-08 | |
a | 3.002357822719496 | 1.6097e-08 | au |
q | 2.680873449627465 | 1.2104e-07 | au |
i | 10.09227580329661 | 4.0852e-06 | deg |
node | 320.498323220043 | 2.0412e-05 | deg |
peri | 43.17673217641006 | 2.6534e-05 | deg |
M | 59.66656670993054 | 1.6391e-05 | deg |
tp | 2458685.565201397727 (2019-Jul-21.06520140) | 8.6665e-05 | TDB |
period | 1900.16844857186 5.20 | 1.5282e-05 4.184e-08 | d yr |
n | .1894568875041426 | 1.5237e-09 | deg/d |
Q | 3.323842195811527 | 1.7821e-08 | au |
|
| | Orbit Determination Parameters
Additional Information
|